This is the latest recevied weather packets stored in our database for station/object KH6DH-13. If no packets are shown the sender has not sent any weather packets the latest 10 day(s).
| Time | Temp. | Humidity | Pressure | Rain* | Wind** | Luminosity | Snow |
|---|---|---|---|---|---|---|---|
| 1778162239 | 23.33° C | - | - | 0 mm | 1.34 m/s, 46° | - | - |
| 1778161638 | 23.33° C | - | - | 0 mm | 1.79 m/s, 87° | - | - |
| 1778161037 | 23.33° C | - | - | 0 mm | 1.34 m/s, 68° | - | - |
| 1778159217 | 23.33° C | - | - | 0 mm | 1.34 m/s, 51° | - | - |
| 1778158616 | 23.33° C | - | - | 0 mm | 1.34 m/s, 91° | - | - |
| 1778158015 | 23.33° C | - | - | 0 mm | 1.79 m/s, 90° | - | - |
| 1778157414 | 23.89° C | - | - | 0 mm | 0.89 m/s, 79° | - | - |
| 1778156813 | 23.33° C | - | - | 0 mm | 1.34 m/s, 14° | - | - |
| 1778156212 | 23.89° C | - | - | 0 mm | 0.89 m/s, 46° | - | - |
| 1778155611 | 23.33° C | - | - | 0 mm | 1.34 m/s, 37° | - | - |
| 1778155010 | 23.33° C | - | - | 0 mm | 0.45 m/s, 66° | - | - |
| 1778154409 | 23.89° C | - | - | 0 mm | 0.89 m/s, 101° | - | - |
| 1778153808 | 23.33° C | - | - | 0 mm | 1.34 m/s, 45° | - | - |
| 1778153207 | 23.89° C | - | - | 0 mm | 1.34 m/s, 18° | - | - |
| 1778152606 | 23.89° C | - | - | 0 mm | 0.89 m/s, 55° | - | - |
| 1778152005 | 23.89° C | - | - | 0 mm | 1.34 m/s, 46° | - | - |
| 1778151404 | 23.33° C | - | - | 0 mm | 0.45 m/s, 48° | - | - |
| 1778150801 | 23.89° C | - | - | 0 mm | 1.79 m/s, 87° | - | - |
| 1778150200 | 23.89° C | - | - | 0 mm | 1.79 m/s, 62° | - | - |
| 1778149599 | 23.89° C | - | - | 0 mm | 1.34 m/s, 93° | - | - |
| 1778148998 | 23.89° C | - | - | 0 mm | 0.45 m/s, 10° | - | - |
| 1778148397 | 23.89° C | - | - | 0 mm | 1.79 m/s, 90° | - | - |
| 1778147796 | 24.44° C | - | - | 0 mm | 1.79 m/s, 65° | - | - |
| 1778147193 | 23.89° C | - | - | 0 mm | 1.34 m/s, 76° | - | - |
| 1778146592 | 23.89° C | - | - | 0 mm | 0.89 m/s, 103° | - | - |
* Rain latest hour (hover to see other rain measurements)
** Current wind speed in m/s (hover to see current wind gust speed)